STARLINK-32143, 60296

Orbit data source: Space-Track

STARLINK-32143, 60296 is a payload satellite owned by SpaceX/Seattle (US) in LEO that was launched on Sun, 28 Jul 2024 UTC via an FALCON 9 launch vehicle from the Air Force Eastern Test Range (AFETR). Payload-class satellites include a variety of spacecraft equipped with specific instruments for various scientific and technological missions. These include communications satellites like Starlink; space stations such as the ISS; scientific satellites like the Hubble; Earth observation satellites from companies like Planet Labs, Umbra, and HawkEye 360; GPS; miniature CubeSats for education and research; and military/defense satellites.

Loading next visibility...
Identifier
60296, 2024-132U
Orbit
LEO
Last TLE update
21 hours ago
Origin
Manufacturer
SpaceX/Seattle
Mission
Operational spacecraft
Bus & Motor
STARLINK V2M, Unknown motor
Mass
730 kg wet, ~700 kg dry
Launch date (UTC)
2024-07-28 (9 months ago)
Launch vehicle
FALCON 9
Launch site
Air Force Eastern Test Range (AFETR)
Object type
Payload
Rocket body
Debris
Shape & HBR
Unknown
Radar Cross Section
Large (>1 m²)

Expand to show TLE details & history

TLE from 21 hours ago
0 STARLINK-32143
1 60296U 24132U   25129.10423716 -.00000143  00000-0  73177-5 0  9997
2 60296  53.1616  27.4378 0001409  99.8622 260.2538 15.30194329 44920
Epoch: 2025-05-09T02:30Z
Definitive object data (Epoch: 2025-05-09T02:30:06.09Z)
Latitude
-0.00002°
Longitude
122.74724°
Altitude
476.295 km
Speed
7.629 km/s
True Right ascension
01h 49m 45s
True Declination
0° 00' 00"
Sunlit
Object was in daylight at TLE epoch
Visualization TLE readout
Latitude
36.83293°
Longitude
152.67918°
Altitude
477.603 km
Speed
7.632 km/s
Apparent Right ascension
00h 00m 03s
Apparent Declination
0° 13' 33"
Sunlit
Object is in daylight
Visualization observer readout
Local Sidereal Time
07:16:57
Azimuth
282.787° WNW
Elevation
-14.478°
Doppler factor
1
Orbital elements
Apogee altitude
476.454 km
Perigee altitude
474.522 km
Semi-major axis
6,853.625 km
Eccentricity
0.0001409
Inclination
53.1616°
RAAN
27.4378°
Arg. of periapsis
99.8622°
True anomaly
260.23789°
Mean anomaly
260.2538°
Eccentric anomaly
260.24584°
Mean motion
3.82527 °/min
BSTAR
0.0000073177
Orbital period
94.11 mins
Loading maneuver chart data...
Loading SW <> Apogee altitude chart data...
Loading historical data...
Loading historical data...
Loading historical data...
Loading historical data...
Loading historical data...
Loading historical data...
Loading historical data...

STARLINK-32143 Visibility forecast

Observer location: undefined°, undefined°

Span
Click to sort rows by Start time (UTC) header in descending order
Start Az.
Max El. time (UTC)
Max El. Az.
Max El.
End time (UTC)
End Az.
5 mins2025-05-10 02:31:23.434Z317.147° NNW2025-05-10 02:33:23.434Z10.177° NNE43.252°2025-05-10 02:36:23.434Z122.399° SE
6 mins2025-05-10 19:26:23.434Z221.319° SW2025-05-10 19:29:23.434Z86.948° E42.507°2025-05-10 19:32:23.434Z53.471° ENE
|